WMT7EB EPKK-LROP

Flight info

Callsign WMT7EB
Flight time 1h 7m
Altitude 39000
Route REGTO DCT RAZEC DCT KEKED DCT BADOR DCT ATSOS DCT IRLOX DCT BIVBU DCT TOSVI
Aircraft A20N/M-SDE2E3FGHIRWXY/LB1

Departure

Time 2026-05-04 19:47
Airport Kraków John Paul II International Airport (EPKK)

Arrival

Time 2026-05-04 20:55
Airport Bucharest Henri Coandă International Airport (LROP)
Time Latitude Longitude Altitude Speed Heading
2026-05-04 19:32 50.07288 19.79736 793 ft 0 kts 167°
2026-05-04 19:39 50.07289 19.79736 793 ft 2 kts 167°
2026-05-04 19:40 50.07306 19.79729 793 ft 3 kts 170°
2026-05-04 19:40 50.07325 19.79731 793 ft 3 kts 193°
2026-05-04 19:40 50.07342 19.79738 793 ft 3 kts 193°
2026-05-04 19:40 50.07360 19.79744 793 ft 3 kts 193°
2026-05-04 19:41 50.07375 19.79750 793 ft 0 kts 189°
2026-05-04 19:41 50.07381 19.79752 793 ft 2 kts 189°
2026-05-04 19:41 50.07391 19.79754 793 ft 0 kts 177°
2026-05-04 19:42 50.07390 19.79754 793 ft 0 kts 177°
2026-05-04 19:42 50.07378 19.79764 793 ft 3 kts 143°
2026-05-04 19:43 50.07367 19.79816 793 ft 8 kts 86°
2026-05-04 19:43 50.07384 19.79912 793 ft 9 kts 76°
2026-05-04 19:43 50.07399 19.80008 793 ft 9 kts 78°
2026-05-04 19:43 50.07412 19.80106 793 ft 9 kts 78°
2026-05-04 19:44 50.07425 19.80202 793 ft 9 kts 78°
2026-05-04 19:44 50.07439 19.80298 793 ft 9 kts 78°
2026-05-04 19:44 50.07470 19.80376 793 ft 8 kts 30°
2026-05-04 19:44 50.07524 19.80405 793 ft 8 kts 16°
2026-05-04 19:45 50.07578 19.80425 793 ft 8 kts
2026-05-04 19:45 50.07630 19.80409 793 ft 7 kts 348°
2026-05-04 19:45 50.07683 19.80391 793 ft 10 kts 348°
2026-05-04 19:45 50.07774 19.80362 793 ft 17 kts 348°
2026-05-04 19:46 50.07908 19.80315 793 ft 22 kts 346°
2026-05-04 19:46 50.08012 19.80189 793 ft 20 kts 265°
2026-05-04 19:46 50.07982 19.79974 793 ft 21 kts 257°
2026-05-04 19:46 50.07920 19.79526 794 ft 74 kts 258°
2026-05-04 19:47 50.07762 19.78392 796 ft 139 kts 258°
2026-05-04 19:47 50.07541 19.76794 1173 ft 155 kts 257°
2026-05-04 19:47 50.07317 19.75152 1864 ft 151 kts 256°
2026-05-04 19:47 50.07080 19.73476 2404 ft 172 kts 256°
2026-05-04 19:48 50.06801 19.71530 2744 ft 202 kts 256°
2026-05-04 19:48 50.06478 19.69261 3279 ft 223 kts 255°
2026-05-04 19:48 50.05941 19.66966 4150 ft 229 kts 243°
2026-05-04 19:48 50.05041 19.64825 4862 ft 243 kts 228°
2026-05-04 19:49 50.03637 19.63283 5628 ft 256 kts 202°
2026-05-04 19:49 50.01833 19.63049 6406 ft 272 kts 169°
2026-05-04 19:49 50.00167 19.64447 7245 ft 282 kts 139°
2026-05-04 19:49 49.98829 19.66690 8271 ft 285 kts 133°
2026-05-04 19:50 49.97560 19.69073 9314 ft 287 kts 132°
2026-05-04 19:50 49.96273 19.71480 10263 ft 291 kts 133°
2026-05-04 19:50 49.94911 19.73960 10721 ft 313 kts 134°
2026-05-04 19:50 49.93425 19.76607 11130 ft 333 kts 134°
2026-05-04 19:51 49.91891 19.79314 11837 ft 342 kts 134°
2026-05-04 19:51 49.90291 19.82119 12668 ft 348 kts 135°
2026-05-04 19:51 49.88662 19.84957 13516 ft 353 kts 135°
2026-05-04 19:51 49.87007 19.87826 14304 ft 358 kts 135°
2026-05-04 19:52 49.85351 19.90684 15057 ft 363 kts 135°
2026-05-04 19:52 49.83648 19.93611 15834 ft 367 kts 135°
2026-05-04 19:52 49.81939 19.96542 16601 ft 371 kts 135°
2026-05-04 19:52 49.80186 19.99541 17375 ft 376 kts 134°
2026-05-04 19:53 49.78413 20.02571 18117 ft 380 kts 134°
2026-05-04 19:53 49.76621 20.05628 18806 ft 384 kts 134°
2026-05-04 19:53 49.74812 20.08710 19454 ft 388 kts 134°
2026-05-04 19:53 49.72987 20.11815 20116 ft 391 kts 134°
2026-05-04 19:54 49.71169 20.14904 20767 ft 395 kts 134°
2026-05-04 19:54 49.69306 20.18066 21422 ft 399 kts 134°
2026-05-04 19:54 49.67430 20.21248 22057 ft 402 kts 134°
2026-05-04 19:54 49.65524 20.24476 22687 ft 406 kts 133°
2026-05-04 19:55 49.63567 20.27659 23307 ft 409 kts 138°
2026-05-04 19:55 49.61376 20.30383 23826 ft 411 kts 146°
2026-05-04 19:55 49.58974 20.32840 24307 ft 414 kts 149°
2026-05-04 19:55 49.56490 20.35140 24789 ft 417 kts 151°
2026-05-04 19:56 49.53962 20.37378 25236 ft 420 kts 151°
2026-05-04 19:56 49.51445 20.39580 25679 ft 423 kts 151°
2026-05-04 19:56 49.48845 20.41866 26128 ft 426 kts 151°
2026-05-04 19:56 49.46301 20.44128 26551 ft 429 kts 150°
2026-05-04 19:57 49.43700 20.46464 26975 ft 432 kts 150°
2026-05-04 19:57 49.41094 20.48826 27390 ft 435 kts 150°
2026-05-04 19:57 49.38475 20.51213 27800 ft 438 kts 150°
2026-05-04 19:57 49.35872 20.53592 28186 ft 441 kts 150°
2026-05-04 19:58 49.33228 20.56011 28568 ft 444 kts 150°
2026-05-04 19:58 49.30565 20.58447 28929 ft 447 kts 150°
2026-05-04 19:58 49.27872 20.60907 29281 ft 450 kts 150°
2026-05-04 19:58 49.25172 20.63370 29644 ft 453 kts 150°
2026-05-04 19:59 49.22474 20.65828 29988 ft 456 kts 150°
2026-05-04 19:59 49.19737 20.68317 30297 ft 459 kts 149°
2026-05-04 19:59 49.16984 20.70816 30617 ft 461 kts 149°
2026-05-04 19:59 49.14199 20.73338 30961 ft 461 kts 149°
2026-05-04 20:00 49.11439 20.75837 31406 ft 460 kts 149°
2026-05-04 20:00 49.08689 20.78326 31844 ft 458 kts 149°
2026-05-04 20:00 49.05980 20.80777 32234 ft 457 kts 149°
2026-05-04 20:00 49.03229 20.83264 32610 ft 457 kts 149°
2026-05-04 20:01 49.00492 20.85737 32996 ft 456 kts 149°
2026-05-04 20:01 48.97794 20.88172 33371 ft 455 kts 149°
2026-05-04 20:01 48.95068 20.90629 33736 ft 454 kts 149°
2026-05-04 20:01 48.92337 20.93087 34105 ft 453 kts 150°
2026-05-04 20:02 48.89614 20.95534 34414 ft 453 kts 149°
2026-05-04 20:02 48.86927 20.97945 34702 ft 452 kts 149°
2026-05-04 20:02 48.84197 21.00392 34996 ft 451 kts 149°
2026-05-04 20:02 48.81486 21.02817 35282 ft 451 kts 149°
2026-05-04 20:03 48.78810 21.05207 35560 ft 450 kts 149°
2026-05-04 20:03 48.76107 21.07618 35819 ft 450 kts 149°
2026-05-04 20:03 48.73399 21.10031 36056 ft 451 kts 149°
2026-05-04 20:03 48.70701 21.12431 36298 ft 450 kts 149°
2026-05-04 20:04 48.67997 21.14835 36530 ft 450 kts 149°
2026-05-04 20:04 48.65276 21.17249 36763 ft 450 kts 149°
2026-05-04 20:04 48.62591 21.19629 36988 ft 451 kts 149°
2026-05-04 20:05 48.57238 21.24659 37051 ft 447 kts 146°
2026-05-04 20:05 48.52140 21.29946 37049 ft 445 kts 145°
2026-05-04 20:06 48.47097 21.35307 37048 ft 446 kts 144°
2026-05-04 20:06 48.42033 21.40716 37046 ft 446 kts 144°
2026-05-04 20:07 48.36946 21.46133 37048 ft 446 kts 144°
2026-05-04 20:07 48.31887 21.51498 37051 ft 447 kts 144°
2026-05-04 20:08 48.26792 21.56883 37050 ft 447 kts 144°
2026-05-04 20:08 48.21688 21.62263 37049 ft 447 kts 144°
2026-05-04 20:09 48.16618 21.67592 37051 ft 448 kts 144°
2026-05-04 20:09 48.11518 21.72940 37048 ft 448 kts 144°
2026-05-04 20:10 48.06393 21.78302 37049 ft 448 kts 144°
2026-05-04 20:10 48.01292 21.83625 37050 ft 449 kts 144°
2026-05-04 20:11 47.96142 21.88987 37049 ft 449 kts 144°
2026-05-04 20:11 47.91033 21.94294 37051 ft 449 kts 144°
2026-05-04 20:12 47.85883 21.99629 37054 ft 450 kts 144°
2026-05-04 20:12 47.80757 22.04925 37060 ft 450 kts 144°
2026-05-04 20:13 47.75602 22.10240 37063 ft 450 kts 144°
2026-05-04 20:13 47.70472 22.15517 37065 ft 450 kts 144°
2026-05-04 20:14 47.65317 22.20806 37066 ft 450 kts 144°
2026-05-04 20:14 47.60165 22.26079 37067 ft 451 kts 144°
2026-05-04 20:15 47.55014 22.31338 37072 ft 451 kts 144°
2026-05-04 20:15 47.49850 22.36597 37073 ft 451 kts 144°
2026-05-04 20:16 47.45539 22.40979 37079 ft 451 kts 144°
2026-05-04 20:16 47.39516 22.47086 37079 ft 451 kts 144°
2026-05-04 20:17 47.35210 22.51442 37083 ft 451 kts 144°
2026-05-04 20:17 47.30002 22.56698 37086 ft 451 kts 144°
2026-05-04 20:18 47.24816 22.61921 37089 ft 451 kts 144°
2026-05-04 20:18 47.19676 22.67084 37096 ft 451 kts 144°
2026-05-04 20:19 47.14477 22.72293 37101 ft 450 kts 144°
2026-05-04 20:19 47.09284 22.77484 37104 ft 450 kts 144°
2026-05-04 20:20 47.04119 22.82635 37110 ft 450 kts 144°
2026-05-04 20:20 46.98950 22.87778 37113 ft 450 kts 144°
2026-05-04 20:21 46.93762 22.92928 37117 ft 451 kts 144°
2026-05-04 20:21 46.85971 23.00639 37121 ft 451 kts 144°
2026-05-04 20:22 46.80780 23.05760 37125 ft 451 kts 144°
2026-05-04 20:22 46.75585 23.10875 37124 ft 451 kts 144°
2026-05-04 20:23 46.70388 23.15979 37123 ft 451 kts 144°
2026-05-04 20:23 46.65164 23.21098 37123 ft 451 kts 145°
2026-05-04 20:24 46.59978 23.26166 37121 ft 451 kts 145°
2026-05-04 20:24 46.54750 23.31265 37121 ft 451 kts 145°
2026-05-04 20:25 46.49561 23.36313 37120 ft 451 kts 145°
2026-05-04 20:25 46.44317 23.41404 37114 ft 452 kts 145°
2026-05-04 20:26 46.39124 23.46433 37111 ft 451 kts 145°
2026-05-04 20:26 46.33878 23.51500 37106 ft 452 kts 145°
2026-05-04 20:27 46.28697 23.56493 37101 ft 452 kts 145°
2026-05-04 20:27 46.23434 23.61552 37096 ft 452 kts 145°
2026-05-04 20:28 46.18204 23.66570 37098 ft 452 kts 145°
2026-05-04 20:28 46.12949 23.71600 37093 ft 452 kts 145°
2026-05-04 20:29 46.07728 23.76587 37098 ft 452 kts 145°
2026-05-04 20:29 46.02480 23.81587 37099 ft 452 kts 145°
2026-05-04 20:30 45.97229 23.86578 37100 ft 452 kts 145°
2026-05-04 20:30 45.91959 23.91575 37102 ft 452 kts 145°
2026-05-04 20:31 45.86700 23.96549 37106 ft 452 kts 145°
2026-05-04 20:31 45.81470 24.01485 37091 ft 452 kts 146°
2026-05-04 20:32 45.76199 24.06449 37105 ft 452 kts 146°
2026-05-04 20:32 45.70955 24.11376 37101 ft 452 kts 146°
2026-05-04 20:33 45.65667 24.16234 37098 ft 455 kts 150°
2026-05-04 20:33 45.62769 24.18115 36890 ft 457 kts 161°
2026-05-04 20:33 45.59678 24.19213 36629 ft 457 kts 169°
2026-05-04 20:34 45.56535 24.19978 36369 ft 458 kts 171°
2026-05-04 20:34 45.53401 24.20587 36124 ft 459 kts 173°
2026-05-04 20:34 45.50176 24.21156 35864 ft 459 kts 173°
2026-05-04 20:34 45.47036 24.21706 35624 ft 459 kts 173°
2026-05-04 20:35 45.43858 24.22281 35377 ft 459 kts 172°
2026-05-04 20:35 45.40675 24.22883 35127 ft 459 kts 172°
2026-05-04 20:35 45.37506 24.23504 34882 ft 459 kts 172°
2026-05-04 20:35 45.34335 24.24142 34638 ft 460 kts 172°
2026-05-04 20:36 45.31200 24.24783 34384 ft 458 kts 172°
2026-05-04 20:36 45.28042 24.25433 33733 ft 458 kts 172°
2026-05-04 20:36 45.24864 24.26089 32917 ft 460 kts 172°
2026-05-04 20:36 45.21721 24.26735 32160 ft 461 kts 172°
2026-05-04 20:37 45.18554 24.27382 31380 ft 462 kts 172°
2026-05-04 20:37 45.15345 24.28036 30700 ft 461 kts 172°
2026-05-04 20:37 45.12165 24.28684 30135 ft 457 kts 172°
2026-05-04 20:37 45.09068 24.29396 29223 ft 458 kts 168°
2026-05-04 20:38 45.05961 24.30637 28183 ft 462 kts 158°
2026-05-04 20:38 45.03127 24.32644 27419 ft 460 kts 147°
2026-05-04 20:38 45.00614 24.35395 26762 ft 455 kts 135°
2026-05-04 20:38 44.98539 24.38727 26136 ft 448 kts 124°
2026-05-04 20:39 44.96969 24.42517 25536 ft 441 kts 113°
2026-05-04 20:39 44.95774 24.46477 24966 ft 435 kts 110°
2026-05-04 20:39 44.94668 24.50448 24399 ft 430 kts 109°
2026-05-04 20:39 44.93590 24.54315 23859 ft 426 kts 109°
2026-05-04 20:40 44.92485 24.58202 23236 ft 421 kts 109°
2026-05-04 20:40 44.91383 24.62015 22568 ft 417 kts 109°
2026-05-04 20:40 44.90295 24.65737 21931 ft 413 kts 110°
2026-05-04 20:40 44.89196 24.69466 21309 ft 408 kts 110°
2026-05-04 20:41 44.88125 24.73079 20701 ft 404 kts 110°
2026-05-04 20:41 44.87026 24.76773 20083 ft 399 kts 110°
2026-05-04 20:41 44.85954 24.80367 19499 ft 395 kts 110°
2026-05-04 20:41 44.84891 24.83926 18910 ft 390 kts 110°
2026-05-04 20:42 44.83863 24.87359 18354 ft 386 kts 110°
2026-05-04 20:42 44.82802 24.90896 17672 ft 381 kts 110°
2026-05-04 20:42 44.81785 24.94281 17020 ft 378 kts 110°
2026-05-04 20:42 44.80761 24.97682 16390 ft 374 kts 110°
2026-05-04 20:43 44.79749 25.01041 15757 ft 370 kts 110°
2026-05-04 20:43 44.78748 25.04356 15147 ft 366 kts 110°
2026-05-04 20:43 44.77756 25.07639 14547 ft 362 kts 110°
2026-05-04 20:43 44.76786 25.10843 13955 ft 358 kts 109°
2026-05-04 20:44 44.75819 25.14035 13288 ft 355 kts 109°
2026-05-04 20:44 44.74841 25.17257 12585 ft 352 kts 109°
2026-05-04 20:44 44.73877 25.20430 11922 ft 349 kts 109°
2026-05-04 20:44 44.72924 25.23560 11314 ft 346 kts 109°
2026-05-04 20:45 44.71989 25.26613 11043 ft 333 kts 109°
2026-05-04 20:45 44.71097 25.29508 10844 ft 319 kts 109°
2026-05-04 20:45 44.70230 25.32310 10662 ft 305 kts 109°
2026-05-04 20:45 44.69398 25.34992 10479 ft 294 kts 108°
2026-05-04 20:46 44.68593 25.37590 10071 ft 291 kts 108°
2026-05-04 20:46 44.67785 25.40209 9543 ft 292 kts 108°
2026-05-04 20:46 44.66982 25.42825 9064 ft 291 kts 108°
2026-05-04 20:46 44.66177 25.45443 8595 ft 289 kts 108°
2026-05-04 20:47 44.65394 25.47991 8154 ft 286 kts 108°
2026-05-04 20:47 44.64606 25.50553 7712 ft 284 kts 108°
2026-05-04 20:47 44.63819 25.53111 7265 ft 283 kts 108°
2026-05-04 20:47 44.63047 25.55616 6846 ft 280 kts 108°
2026-05-04 20:48 44.62274 25.58122 6429 ft 278 kts 108°
2026-05-04 20:48 44.61510 25.60602 5965 ft 276 kts 108°
2026-05-04 20:48 44.60751 25.63070 5536 ft 274 kts 109°
2026-05-04 20:48 44.59997 25.65523 5085 ft 272 kts 109°
2026-05-04 20:49 44.59269 25.67898 4647 ft 271 kts 110°
2026-05-04 20:49 44.58521 25.70335 4180 ft 270 kts 110°
2026-05-04 20:49 44.57778 25.72755 3712 ft 269 kts 111°
2026-05-04 20:49 44.57043 25.75142 3255 ft 269 kts 111°
2026-05-04 20:50 44.56300 25.77548 2839 ft 267 kts 112°
2026-05-04 20:50 44.55570 25.79892 2658 ft 255 kts 112°
2026-05-04 20:50 44.54931 25.82153 2527 ft 242 kts 104°
2026-05-04 20:50 44.54711 25.84410 2496 ft 225 kts 88°
2026-05-04 20:51 44.54839 25.86503 2496 ft 212 kts 81°
2026-05-04 20:51 44.55025 25.88535 2495 ft 210 kts 82°
2026-05-04 20:51 44.55180 25.90497 2531 ft 193 kts 82°
2026-05-04 20:51 44.55316 25.92292 2423 ft 180 kts 82°
2026-05-04 20:52 44.55445 25.94019 2114 ft 174 kts 82°
2026-05-04 20:52 44.55566 25.95646 1920 ft 159 kts 82°
2026-05-04 20:52 44.55678 25.97124 1710 ft 146 kts 82°
2026-05-04 20:52 44.55779 25.98467 1529 ft 135 kts 82°
2026-05-04 20:53 44.55877 25.99764 1371 ft 133 kts 83°
2026-05-04 20:53 44.55973 26.01053 1206 ft 133 kts 83°
2026-05-04 20:53 44.56069 26.02340 1039 ft 132 kts 83°
2026-05-04 20:53 44.56162 26.03617 880 ft 131 kts 84°
2026-05-04 20:54 44.56254 26.04871 723 ft 130 kts 84°
2026-05-04 20:54 44.56350 26.06129 565 ft 129 kts 84°
2026-05-04 20:54 44.56448 26.07384 401 ft 131 kts 84°
2026-05-04 20:54 44.56535 26.08601 324 ft 113 kts 84°
2026-05-04 20:55 44.56599 26.09447 326 ft 62 kts 83°
2026-05-04 20:55 44.56624 26.09789 325 ft 10 kts 83°
2026-05-04 20:55 44.56629 26.09852 325 ft 16 kts 84°
2026-05-04 20:55 44.56642 26.10028 325 ft 19 kts 84°
2026-05-04 20:56 44.56656 26.10238 326 ft 29 kts 84°
2026-05-04 20:56 44.56682 26.10564 326 ft 34 kts 83°
2026-05-04 20:56 44.56765 26.10765 325 ft 25 kts 358°
2026-05-04 20:56 44.56938 26.10739 325 ft 25 kts 354°
2026-05-04 20:57 44.57055 26.10587 324 ft 24 kts 297°
2026-05-04 20:57 44.57055 26.10356 325 ft 24 kts 263°
2026-05-04 20:57 44.57038 26.10118 325 ft 25 kts 264°
2026-05-04 20:57 44.57019 26.09874 324 ft 26 kts 263°
2026-05-04 20:58 44.56999 26.09624 325 ft 26 kts 263°
2026-05-04 20:58 44.56979 26.09367 325 ft 27 kts 265°
2026-05-04 20:58 44.56966 26.09194 325 ft 27 kts 264°
2026-05-04 20:58 44.56945 26.08929 325 ft 28 kts 264°
2026-05-04 20:59 44.56915 26.08570 326 ft 27 kts 250°
2026-05-04 20:59 44.56915 26.08412 325 ft 24 kts 315°
2026-05-04 20:59 44.56942 26.08210 326 ft 22 kts 264°
2026-05-04 20:59 44.57019 26.08135 326 ft 0 kts 349°
2026-05-04 21:00 44.57021 26.08135 326 ft 0 kts 347°